Location: Wiesbaden
(50.0830°N, 8.2500°E)
Time: 08:10:23
(UTC+02:00)

ISS - Visible Passes

Search period start: 24 October 2017 00:00
Search period end: 02 November 2017 23:00
Orbit: 400 x 408 km, 51.6° (Epoch: 24 October)

Date Brightness Start Highest point End Pass type
(mag) Time Alt. Az. Time Alt. Az. Time Alt. Az.
30 Oct -0.8 05:55:54 10° S 05:57:41 14° SE 05:59:28 10° ESE visible
31 Oct -2.4 06:38:12 10° SW 06:41:16 39° SSE 06:44:22 10° E visible
01 Nov -1.8 05:46:12 10° SSW 05:48:58 25° SE 05:51:44 10° E visible
02 Nov -1.3 04:56:01 15° SSE 04:56:43 16° SE 04:58:50 10° E visible
02 Nov -3.5 06:29:29 10° WSW 06:32:44 67° SSE 06:35:58 10° ENE visible
